Location: Unspecified
(50.0077°N, 36.2988°E)
Time: 21:10:24
(UTC+00:00)

ISS - Pass Details

Date: 27 September 2020
Orbit: 417 x 420 km, 51.6° (Epoch: 27 October)

Event Time Altitude Azimuth Distance (km) Brightness Sun altitude
Rises 17:30:14 0° 284° (WNW) 2,370 1.5 -21.1°
Reaches altitude 10° 17:32:20 10° 285° (WNW) 1,506 0.2 -21.4°
Enters shadow 17:35:16 63° 304° (NW) 474 -3.4 -21.8°
